Location: Arros�s
(43.5500°N, 0.1167°W)
Time: 03:25:56
(UTC+00:00)

Daily predictions for brighter satellites

Satellite Brightness Start Highest point End
(mag) Time Altitude Azimuth Time Altitude Azimuth Time Altitude Azimuth
Cosmos 2369 Rocket 4.4 03:51:55 17° NNE 03:51:55 17° NNE 03:53:05 10° NNE
Cosmos 2344 4.4 04:05:25 35° N 04:05:25 35° N 04:10:32 10° NNE
SJ 16-02 3.9 04:13:50 10° SE 04:17:00 20° E 04:20:10 10° NE
USA 215 4.3 04:13:59 10° ENE 04:19:40 33° NNE 04:20:33 32° N
Cosmos 1634 Rocket 4.3 04:34:54 53° S 04:34:54 53° S 04:39:32 10° S
ATLAS 5 CENTAUR R/B 2.7 04:41:25 36° ENE 04:41:25 36° ENE 04:44:19 10° NE
Cosmos 1354 Rocket 3.8 04:53:50 81° WNW 04:53:51 81° WNW 04:59:12 10° NNE
CENTAUR R/B 3.9 04:59:09 24° NNW 04:59:09 24° NNW 05:04:30 10° NNE
DELTA 2 R/B (1) 3.8 04:59:49 52° SW 05:00:37 58° S 05:06:03 10° ESE
SL-19 R/B 4.1 05:01:02 10° SSE 05:06:36 81° WSW 05:09:39 29° NNW
CZ-3 R/B 4.4 04:57:06 10° SW 05:08:13 20° S 05:13:37 10° SE
Cosmos 2180 Rocket 4.3 05:03:00 10° N 05:09:11 85° W 05:15:18 10° S
Cosmos 1328 Rocket 4.4 05:16:03 35° SSW 05:16:03 35° SSW 05:18:45 10° S
MOS 1-B Rocket 3.9 05:13:56 10° S 05:19:56 59° WSW 05:23:07 26° NNW
Meteor 1-27 Rocket 3.8 05:17:47 10° N 05:23:31 81° E 05:29:19 10° SSE
Meteor 2-6 Rocket 4.4 05:24:13 42° WNW 05:24:50 43° W 05:29:55 10° SSW
BREEZE-M DEB (TANK) 4.0 05:26:09 33° WSW 05:28:11 46° SSW 05:44:12 10° SE
ADEOS 4.1 05:23:06 10° NNE 05:28:18 62° ESE 05:33:28 10° S
Cosmos 2297 Rocket 3.8 05:24:31 10° N 05:29:33 31° NE 05:34:32 10° ESE
ATLAS 3B R/B 2.6 05:24:23 10° SW 05:30:54 89° WNW 05:37:47 10° NE
Cosmos 1607 4.4 05:26:35 17° NNW 05:31:20 57° NE 05:37:22 10° SE
Cosmos 2369 Rocket 3.7 05:33:46 18° NNW 05:33:46 18° NNW 05:36:13 10° N
Meteor 2-15 Rocket 4.3 05:26:41 10° N 05:32:47 82° W 05:38:50 10° S
Landsat 5 3.5 05:28:43 10° S 05:33:13 81° WSW 05:36:39 17° NNW
Cosmos 773 Rocket 4.1 05:32:06 32° NW 05:34:11 53° WSW 05:39:11 10° S
Cosmos 1340 Rocket 2.7 05:30:16 10° S 05:34:13 87° E 05:38:15 10° N
COSMO-SKYMED 1 2.6 05:30:56 10° S 05:35:12 56° W 05:37:10 29° NW
Cosmos 1777 Rocket 3.9 05:30:01 10° SSW 05:35:12 64° WNW 05:40:26 10° NNE
SL-27 R/B 3.3 05:36:24 34° SW 05:36:24 34° SW 05:38:57 10° S
CZ-2C R/B 2.7 05:31:45 10° S 05:37:07 58° W 05:41:56 13° NNW
CZ-4B R/B 4.3 05:35:55 10° E 05:37:28 13° ENE 05:39:01 10° NE
Cosmos 1408 Rocket 3.7 05:36:41 10° SSW 05:40:49 46° WNW 05:44:59 10° N
Cosmos 158 Rocket 4.0 05:36:53 13° NNW 05:41:32 81° ENE 05:46:49 10° SSE
SJ-12 4.3 05:38:23 10° N 05:42:16 40° WNW 05:46:08 10° SW
CZ-4B R/B 3.7 05:41:09 10° NNE 05:44:36 46° E 05:48:08 10° S
FAST Rocket 4.1 05:43:51 10° S 05:46:30 87° E 05:49:59 10° N
Lacrosse 5 3.6 05:43:20 10° S 05:47:55 35° SE 05:52:31 10° ENE
Meteor 1-31 Rocket 3.1 05:47:12 10° N 05:50:55 42° WNW 05:54:37 10° SW
USA 32 4.1 05:46:37 10° N 05:51:53 81° E 05:57:08 10° S
Envisat 3.4 05:47:58 10° N 05:52:41 40° WNW 05:57:23 10° SW
Cosmos 1743 Rocket 3.4 05:48:43 10° SSW 05:53:03 65° W 05:57:24 10° N
SJ 16-02 1.7 05:51:11 10° SW 05:55:16 39° WNW 05:59:24 10° N
CZ-2C R/B 3.1 05:53:36 10° NNE 05:58:36 83° ESE 06:03:51 10° SSW
USA 215 3.4 05:55:34 10° ESE 06:02:04 71° NE 06:07:53 13° NW
Cosmos 1515 Rocket 4.3 06:00:09 20° NW 06:02:09 30° W 06:05:54 10° SSW
SL-4 R/B 1.6 05:59:55 14° SW 06:02:51 87° SSE 06:06:35 10° ENE
Nadezhda 4 Rocket 4.1 05:57:35 10° SSW 06:03:34 50° WNW 06:09:38 10° N
Lacrosse 4 Rocket 3.6 06:01:01 10° N 06:04:34 22° NE 06:08:07 10° E
Cosmos 2227 Rocket 3.3 06:00:43 10° NNW 06:06:04 41° ENE 06:11:23 10° SE
IRAS Rocket 4.2 06:02:01 10° SSE 06:07:30 77° WSW 06:13:01 10° NNW
Cosmos 1939 Rocket 3.1 06:05:05 10° NNE 06:08:59 68° E 06:12:49 10° S
Cosmos 2228 Rocket 3.1 06:07:16 10° NNW 06:11:47 68° W 06:16:17 10° S
Okean 1 3.3 06:09:04 10° N 06:13:03 83° E 06:16:59 10° S
FengYun 1-2 T 4.4 06:11:17 10° NNE 06:16:47 77° ESE 06:22:16 10° S
Cosmos 1602 3.9 06:14:01 10° SSW 06:17:42 48° WNW 06:21:25 10° N
Sich 1 2.9 06:14:02 10° SSW 06:18:18 72° W 06:22:34 10° N
Cosmos 1428 Rocket 4.4 06:12:22 10° SSW 06:18:30 74° W 06:24:38 10° N
Meteor PRIRODA 3.7 06:15:08 10° N 06:18:41 53° WNW 06:22:13 10° SSW
Cosmos 1500 Rocket 4.3 06:15:45 10° SW 06:19:46 32° WNW 06:23:49 10° N
DMSP B5D2-2 4.1 06:15:10 10° S 06:20:17 58° W 06:25:26 10° NNW
GENESIS II 4.2 06:17:26 13° NW 06:20:54 71° WSW 06:24:51 10° SSE
Meteor 1-18 Rocket 4.4 06:15:45 10° N 06:21:36 79° E 06:27:17 10° SSE
Cosmos 990 Rocket 4.0 06:16:58 10° SSW 06:22:13 88° ESE 06:27:29 10° NNE
NOAA 11 4.4 06:17:28 10° N 06:22:46 50° WNW 06:28:01 10° SW
COSMOS 2487 3.4 06:20:59 16° NW 06:22:52 25° WSW 06:25:40 10° SSW
BREEZE M DEB (TANK) 2.7 06:21:00 15° NW 06:23:02 37° NNE 06:24:59 10° E
Meteor 1-20 Rocket 4.3 06:18:41 10° SSW 06:24:07 53° WNW 06:29:45 10° N
Meteor 2-21 4.4 06:18:00 10° S 06:24:11 80° W 06:30:21 10° N
Cosmos 1092 Rocket 4.1 06:18:21 10° SSW 06:24:30 59° W 06:30:47 10° N
Cosmos 1500 3.1 06:21:23 10° SSW 06:25:09 63° W 06:28:55 10° N
ATLAS 5 CENTAUR R/B 2.7 06:22:59 14° WNW 06:25:11 21° NW 06:28:35 10° NNE
H-2A R/B 2.1 06:26:24 10° S 06:30:41 66° WSW 06:35:04 10° NNW
Cosmos 1805 Rocket 4.0 06:28:19 10° SSW 06:32:25 39° WNW 06:36:32 10° N
Cosmos 1697 Rocket 3.8 06:28:25 10° S 06:33:49 50° ESE 06:39:14 10° NE
Cosmos 1707 Rocket 3.6 06:29:53 10° N 06:34:22 81° W 06:38:49 10° S
Meteor 1-19 Rocket 4.3 06:34:16 10° NNW 06:39:40 55° W 06:44:55 10° S
Cosmos 44 3.9 06:34:22 10° SSW 06:39:44 70° ESE 06:44:56 10° NE
PSLV R/B 4.0 06:41:18 10° NNE 06:45:19 85° ESE 06:49:23 10° SSW
Cosmos 2219 3.4 06:39:44 10° NNW 06:45:26 81° ENE 06:51:08 10° SSE
Cosmos 1862 Rocket 3.7 06:43:35 10° N 06:47:57 82° E 06:52:17 10° S
Cosmos 724 4.3 06:42:44 10° NNW 06:48:38 89° SW 06:54:25 10° SSE
FALCON 9 DEB 2.9 06:46:01 10° NW 06:48:50 63° NNE 06:51:39 10° ESE
NOSS 8 (E) 4.3 06:46:17 10° SW 06:49:54 89° SE 06:52:55 10° NE
